{"data":{"norad_id":65588,"epoch":"2026-09-19T21:15:38.616768Z","epoch_age_seconds":71361,"freshness":"FRESH","line1":"1 65588U 25205A   26262.88586362 -.00000362  00000+0  00000+0 0  9990","line2":"2 65588   0.0143 350.5398 0000349 259.1726 180.8442  1.00271083  3667","mean_motion":1.00271083,"eccentricity":3.49e-5,"inclination_deg":0.0143,"raan_deg":350.5398,"arg_perigee_deg":259.1726,"mean_anomaly_deg":180.8442,"bstar":0,"rev_number":366,"period_min":1436.1069581746,"perigee_km":35785.320202408,"apogee_km":35788.263314436,"semimajor_km":42164.928758422,"source":"CELESTRAK","updated_at":"2026-09-20T09:00:35.346083Z"}}